Regional Weather Roundup
Issued by NWS

Home | Current Version | Previous Version | Graphics & Text | Print | Product List | Glossary On
Versions: 1 2 3 4 5 6 7 8 9 10 11 12 13 14 15 16 17 18 19 20 21 22 23 24 25 26 27 28 29 30 31 32 33 34 35 36 37 38 39 40 41 42 43 44 45 46 47 48 49 50
000
ASUS43 KMPX 180610
RWRMN
WEATHER ROUNDUP FOR MINNESOTA
NATIONAL WEATHER SERVICE TWIN CITIES/CHANHASSEN MN
1200 AM CST THU JAN 18 2018


NOTE: "FAIR" INDICATES FEW OR NO CLOUDS BELOW 12,000 FEET WITH NO
SIGNIFICANT WEATHER AND/OR OBSTRUCTIONS TO VISIBILITY. N/A MEANS
CURRENT SKY AND/OR WEATHER CONDITIONS ARE NOT AVAILABLE.

MNZ060>063-068>070-180700-
   Twin Cities Metro

CITY           SKY/WX    TMP DP  RH WIND       PRES   REMARKS
TWIN CITIES    FAIR      24  16  71 SW9       30.03F WCI  14
6HR MIN TEMP:  24; 6HR MAX TEMP:  27;

ST PAUL        FAIR      25  16  68 VRB3      30.04F
CRYSTAL        FAIR      26  15  63 SW14G20   30.01S WCI  14
BLAINE         FAIR      27  19  74 SW6       30.00S WCI  20
LAKEVILLE      FAIR      21  18  86 SW6       30.04R WCI  14
EDEN PRAIRIE   FAIR      23  15  71 SW12      30.03S WCI  12
6HR MIN TEMP:  23; 6HR MAX TEMP:  26;

SOUTH ST PAUL  FAIR      26  16  67 SW5       30.03F WCI  20
LAKE ELMO      FAIR      27  18  69 SW9       30.02F WCI  17
$$
MNZ001>005-007-008-013>017-022>024-027-028-180700-
   Northwest Minnesota

CITY           SKY/WX    TMP DP  RH WIND       PRES   REMARKS
BEMIDJI        FAIR      31  21  67 SW12      29.81F WCI  21
HALLOCK        CLOUDY    32  25  74 SW10      29.71S WCI  24
ROSEAU         LGT SNOW  34  28  80 SW21G26   29.69R WCI  22
WARROAD        CLOUDY    32  27  80 SW12G17   29.68F WCI  23
CROOKSTON      FAIR      27  21  80 SW12      29.82F WCI  16
FOSSTON        FAIR      25  19  80 SW14      29.84F WCI  13
DETROIT LAKES  FAIR      32  23  69 W12       29.90S WCI  23
MOORHEAD       FAIR      30  21  69 SW14      29.91F WCI  20
PARK RAPIDS    FAIR      24  18  77 SW8       29.87S WCI  15
MAHNOMEN       FAIR      24  19  83 SW12      29.87S WCI  13
$$
MNZ006-009>011-018-025>026-180700-
   North Central Minnesota

CITY           SKY/WX    TMP DP  RH WIND       PRES   REMARKS
BAUDETTE       FAIR      29  22  75 SW12      29.68F WCI  19
FLAG ISLAND    CLOUDY    28  25  86 SW14      29.63F WCI  17
INTL FALLS     FAIR      21  18  88 SW7       29.72F WCI  12
6HR MIN TEMP:  19; 6HR MAX TEMP:  22;

WASKISH        FAIR      30  25  80 SW18G25   29.74F WCI  18
BIG FORK       FAIR      28  21  74 SW9       29.78S WCI  20
LONGVILLE      FAIR      27  21  80 SW6       29.86S WCI  20
GRAND RAPIDS   FAIR      26  21  81 SW8       29.84F WCI  18
CRANE LAKE     FAIR       9   7  92 CALM      29.77S
ORR            FAIR      23  18  80 CALM      29.74S
COOK           MOCLDY    19  16  86 SW3       29.78R
WALKER         FAIR      29  21  70 W10       29.84S WCI  20
$$
MNZ012-019>021-037-180700-
   Northeast Minnesota

CITY           SKY/WX    TMP DP  RH WIND       PRES   REMARKS
DULUTH         FAIR      23  17  78 W15       29.82S WCI  10
6HR MIN TEMP: -24; 6HR MAX TEMP:  26;

ELY            FAIR      18  14  86 SW6       29.76F WCI   9
HIBBING        FAIR      23  18  81 SW6       29.80F WCI  16
EVELETH        FAIR      14  10  84 SW3       29.81F
DULUTH HARBOR  FAIR      25  18  74 SW12      29.88S WCI  14
TWO HARBORS    FAIR      21  16  79 SW6       29.81S WCI  14
SILVER BAY     FAIR      19  14  79 SW3       29.79S
GRAND MARAIS     N/A     19  13  77 W5        29.80S WCI  12
G MARAIS ARPRT FAIR      18  12  79 CALM      29.73S
$$
MNZ029>031-032-039>041-046>048-054>057-064-180700-
   West Central Minnesota

CITY           SKY/WX    TMP DP  RH WIND       PRES   REMARKS
FERGUS FALLS   FAIR      18  16  93 S7        29.95F WCI   8
WHEATON        CLOUDY    30  21  69 W12       30.00F WCI  21
MORRIS         CLOUDY    27  21  80 W10       29.97F WCI  17
ALEXANDRIA     FAIR      26  20  77 SW9       29.96F WCI  17
ELBOW LAKE     FAIR      16  15  95 W6        29.97F FOG     WCI   8
WADENA         FAIR      27  19  74 SW10      29.91S WCI  17
GLENWOOD       FAIR      21  19  93 SW10      29.98S WCI  10
APPLETON       CLOUDY    21  18  86 W7        30.01S WCI  13
BENSON         CLOUDY    23  18  80 W5        30.02S WCI  17
ORTONVILLE     CLOUDY    30  19  64 W8        30.01S WCI  23
MADISON        CLOUDY    30  23  74 W8        30.02S WCI  23
WILLMAR        FAIR      18  14  86 SW5       30.03F WCI  11
$$
MNZ033>034-036-042>043-049>051-058-059-180700-
   Central Minnesota

CITY           SKY/WX    TMP DP  RH WIND       PRES   REMARKS
ST CLOUD       FAIR      23  17  78 SW9       29.98S WCI  13
6HR MIN TEMP:  17; 6HR MAX TEMP:  26;

SAUK CENTRE      N/A     22  18  85 CALM      29.97F
PAYNESVILLE    FAIR      21  18  88 W9        30.00S WCI  11
AITKIN         FAIR      25  18  74 SW7       29.87F WCI  17
PINE RIVER     FAIR      27  19  74 W8        29.91S WCI  18
BRAINERD       FAIR      23  17  78 SW9       29.91S WCI  13
STAPLES        FAIR      28  19  69 W10       29.91F WCI  19
LONG PRAIRIE   FAIR      21  18  86 S6        29.95S WCI  14
LITTLE FALLS   FAIR      21  14  73 CALM      29.95F
LITCHFIELD     FAIR      23  19  86 W5        30.01F WCI  17
BUFFALO        FAIR      21  15  78 SW6       30.02S WCI  14
MAPLE LAKE     FAIR      24  19  80 MISG      30.01S
HUTCHINSON     FAIR      22  17  80 SW6       30.03F WCI  15
$$
MNZ037-044-045-052-053-180700-
   East Central Minnesota

CITY           SKY/WX    TMP DP  RH WIND       PRES   REMARKS
PRINCETON      FAIR      25  18  74 SW6       29.97S WCI  18
MORA           FAIR      21  18  86 SW5       29.96S WCI  15
CAMBRIDGE      FAIR      27  18  69 SW7       29.98R WCI  19
RUSH CITY      FAIR      26  18  73 SW8       29.96S WCI  17
MOOSE LAKE     FAIR      19  16  86 SW5       29.88S WCI  13
HINCKLEY       FAIR      21  18  86 SW6       29.93S WCI  14
CLOQUET        FAIR      25  16  68 W13       29.84F WCI  13
MCGREGOR       FAIR      27  21  80 SW6       29.88S WCI  20
$$
MNZ071>073-080-081-089-090-097-098-180700-
   Southwest Minnesota

CITY           SKY/WX    TMP DP  RH WIND       PRES   REMARKS
MONTEVIDEO     CLOUDY    27  21  80 W6        30.02S WCI  20
GRANITE FALLS  CLOUDY    26  21  80 SW13      30.04F WCI  15
CANBY          CLOUDY    31  23  71 SW13G23   30.04S WCI  21
MARSHALL       CLOUDY    28  20  71 W21       30.03F WCI  15
REDWOOD FALLS  CLOUDY    24  17  74 SW13      30.04F WCI  12
OLIVIA         CLOUDY    21  18  86 SW6       30.02F WCI  14
PIPESTONE      CLOUDY    19  16  86 SW9       30.07F WCI   9
WINDOM         CLOUDY    25   9  50 SW15      30.07S WCI  12
WORTHINGTON    CLOUDY    22  16  78 SW20      30.08F WCI   7
JACKSON        CLOUDY    25  18  74 SW17      30.09S WCI  11
SLAYTON        CLOUDY    26  19  75 SW20      30.05F WCI  13
$$
MNZ065>067-074>077-082>085-091>093-180700-
   South Central Minnesota

CITY           SKY/WX    TMP DP  RH WIND       PRES   REMARKS
MANKATO        FAIR      24  17  74 SW10      30.07S WCI  14
NEW ULM        CLOUDY    21  16  79 SW8       30.06S WCI  12
ST JAMES       CLOUDY    25  18  74 SW12      30.08S WCI  14
FAIRMONT       CLOUDY    24  17  74 W8        30.09F WCI  15
FARIBAULT      FAIR      21  16  79 SW9       30.06R WCI  11
OWATONNA       FAIR      21  16  79 SW14      30.06S WCI   8
WASECA         FAIR      19  14  79 SW12      30.09R WCI   7
ALBERT LEA     FAIR      23  14  68 SW9G20    30.07F WCI  13
$$
MNZ078>079-086>088-094>096-180700-
   Southeast Minnesota

CITY           SKY/WX    TMP DP  RH WIND       PRES   REMARKS
ROCHESTER      FAIR      20  14  77 SW22      30.04F WCI   3
6HR MIN TEMP:  19; 6HR MAX TEMP:  21;

RED WING       FAIR      21  12  68 CALM      30.04F
STANTON        FAIR      22  15  75 SW10      30.04S WCI  11
DODGE CENTER   FAIR      19  16  86 SW18      30.04S WCI   4
WINONA         FAIR      25  16  68 W12       30.06F WCI  14
AUSTIN         FAIR      19  12  73 SW10      30.08F WCI   8
PRESTON        FAIR      20  13  72 SW18G26   30.06F WCI   5
$$
ABBREVIATIONS USED IN REMARKS
   TC - TEMPERATURES IN CELSIUS
  WCI - WIND CHILL INDEX
   HX - HEAT INDEX
  VSB - VISIBILITY
$$



USA.gov is the U.S. government's official web portal to all federal, state and local government web resources and services.